Temperature
22 21 21 20 20 20 19 19 19 19 19 19 18 18 18 18 18 18 18 18 18 18 18 18 18 18 18 18 18 18 18 18 18 18 18 18 18 18 18 18 18 18 18
23 21 21 20 20 20 20 19 19 19 19 19 19 18 18 18 18 18 18 18 18 18 18 18 18 18 18 18 18 18 17 18 18 18 18 19 19 18 18 18 18 18 18
23 22 21 21 20 20 20 19 19 19 19 19 18 18 18 18 18 18 18 18 18 18 18 18 18 18 18 18 18 18 17 18 18 17 18 18 19 19 19 18 18 18 18
24 23 21 21 21 20 20 20 19 19 19 19 19 18 18 18 18 18 18 18 18 18 18 18 18 18 18 17 17 17 17 17 17 17 17 17 18 18 18 18 18 18 17
24 23 22 21 21 20 20 19 19 19 19 19 19 19 18 18 18 18 18 18 18 18 17 17 17 17 17 17 17 17 17 17 17 17 17 17 17 17 18 18 18 18 18
24 23 22 21 20 20 20 20 19 19 19 19 19 19 19 18 18 18 18 18 18 17 17 17 17 17 17 17 17 17 17 17 17 17 17 17 17 17 17 18 18 18 18
24 23 22 21 20 20 20 20 20 19 19 19 19 19 19 18 18 18 18 18 18 17 17 17 17 17 17 17 17 17 17 17 17 17 17 17 17 17 17 17 17 17 18
24 23 22 21 21 20 20 20 19 19 19 19 19 19 19 18 18 18 18 17 17 17 17 17 17 17 17 17 17 17 17 17 17 17 17 17 17 17 17 17 17 17 18
24 23 22 21 21 20 20 20 19 19 19 19 19 19 19 18 18 18 18 17 17 17 17 17 17 17 17 17 17 17 17 16 16 16 16 16 16 16 16 16 17 17 17
24 23 22 22 21 20 20 19 19 19 19 19 18 18 18 18 18 18 18 18 18 18 17 17 17 17 17 17 17 16 16 16 16 16 16 16 16 16 16 16 16 16 16
24 23 22 22 21 20 20 19 19 19 19 18 18 18 18 18 18 18 18 18 18 17 17 17 17 17 16 16 17 16 16 16 16 16 16 16 16 16 16 16 16 16 16
24 23 22 21 21 20 20 19 19 19 18 18 18 18 18 18 18 17 17 17 17 17 17 17 17 17 16 16 16 16 16 16 16 15 15 15 16 16 16 16 15 16 15
23 22 22 21 20 20 20 19 19 18 18 18 18 18 17 17 17 17 17 17 17 17 16 16 16 17 16 16 16 16 16 16 15 15 15 15 15 15 15 15 15 15 15
22 22 21 20 20 20 19 19 18 18 18 18 18 17 17 17 17 17 17 17 17 16 16 16 16 16 16 16 16 16 15 15 15 15 15 15 15 15 15 15 15 15 15
21 21 20 20 19 19 19 18 18 18 18 18 17 17 17 17 17 17 17 17 16 16 16 16 15 15 15 15 15 16 15 15 15 15 15 15 15 15 15 14 14 14 14
21 20 20 19 19 19 19 18 18 18 18 18 17 17 17 17 16 16 16 16 16 16 15 15 15 15 15 15 15 15 15 15 15 14 14 14 14 14 14 14 14 14 14
21 20 19 19 19 18 18 18 18 18 18 17 17 17 16 16 16 16 16 16 15 15 15 15 15 15 15 15 15 15 15 15 14 14 14 14 14 14 14 14 14 14 14
20 19 19 19 18 18 18 18 18 17 17 17 17 16 16 16 16 16 16 15 15 15 15 15 15 15 15 15 15 15 14 14 14 14 14 14 14 14 14 14 14 14 13
19 19 18 18 18 18 18 18 17 17 17 17 16 16 16 15 15 15 15 15 15 15 15 15 15 14 14 15 15 15 14 14 14 14 14 14 13 14 14 13 13 13 13
18 18 18 18 17 17 17 17 17 17 16 16 16 16 15 15 15 15 15 15 15 15 15 14 14 14 14 14 14 14 14 14 14 14 14 14 14 13 13 13 13 13 13
17 17 17 17 17 17 17 17 17 16 16 16 16 15 15 15 15 15 15 15 15 15 14 14 14 14 14 14 14 14 14 14 14 14 13 13 13 13 13 13 13 12 12
17 17 17 17 17 16 16 16 16 16 16 16 15 15 15 15 15 15 15 15 15 14 14 14 14 14 14 14 14 14 14 14 13 13 13 13 13 13 13 13 13 13 12
17 16 16 16 16 16 16 16 16 16 15 15 15 15 15 15 14 14 14 14 14 14 14 14 14 14 14 13 13 14 14 13 13 13 13 13 13 13 12 12 12 12 12
16 16 16 16 16 15 15 15 15 15 15 14 14 14 14 14 14 14 14 14 14 14 14 14 14 14 14 13 13 13 13 13 12 12 12 12 12 12 12 12 12 11 11
15 16 16 15 15 15 15 15 14 14 14 14 14 14 14 14 13 13 13 13 13 14 13 13 13 13 13 13 13 13 12 12 12 12 12 12 12 12 12 11 11 11 11
15 15 15 15 15 15 14 14 14 14 14 14 13 14 14 14 13 13 13 13 13 13 13 13 13 13 13 13 13 12 12 12 12 12 12 11 11 11 11 11 11 10 10
Wind_Speed
9 9 9 8 7 6 6 6 5 5 4 3 3 3 3 2 2 2 2 3 3 3 4 4 3 3 3 3 3 2 2 2 1 1 2 2 2 2 3 3 3 3 3
10 10 10 9 8 8 7 7 6 6 5 4 3 3 2 2 2 2 2 3 3 3 4 4 4 3 2 2 2 2 2 1 0 1 1 1 2 3 3 3 4 3 3
11 11 11 10 9 9 8 7 7 6 5 4 3 3 3 3 2 2 2 2 3 3 3 3 3 2 2 2 2 2 3 2 1 1 1 2 1 2 3 3 4 3 3
10 10 11 11 10 9 8 7 7 6 5 5 4 4 4 3 2 2 1 1 1 2 2 2 2 2 2 1 3 2 2 3 2 2 2 2 2 2 2 3 2 3 4
11 11 11 11 10 9 8 8 7 7 6 6 5 5 4 3 2 2 1 1 1 1 2 2 2 2 2 2 2 2 3 3 3 3 2 3 3 4 4 4 4 4 4
10 11 10 10 10 9 9 9 8 8 7 6 6 6 5 4 3 2 1 2 1 1 1 2 2 2 2 2 3 3 3 3 3 4 4 3 3 3 4 5 5 5 4
9 10 10 10 10 10 10 9 9 8 7 7 7 6 6 4 4 3 2 2 2 2 1 2 2 2 2 3 3 3 4 4 4 4 4 4 4 4 5 5 5 6 5
9 9 10 10 9 10 10 9 9 9 8 7 6 5 5 4 4 3 3 3 2 2 2 2 2 3 3 3 3 4 3 3 4 4 4 4 4 4 5 5 5 6 6
8 8 9 9 9 9 9 9 9 8 8 7 6 5 5 4 4 3 4 3 2 2 2 2 2 2 2 3 3 3 3 3 4 4 4 4 4 4 4 5 5 6 7
6 7 7 8 8 9 9 8 9 8 7 7 7 6 6 5 4 4 3 3 2 2 2 3 3 2 2 2 3 3 3 3 3 4 4 5 5 4 5 5 5 6 7
6 6 6 7 7 7 8 8 8 8 7 7 7 6 6 5 5 4 4 3 3 3 3 3 3 3 2 2 3 3 3 4 4 5 5 6 5 5 5 5 5 6 6
5 5 5 6 7 7 7 8 7 8 7 7 7 6 5 5 5 4 4 4 3 4 3 3 3 3 3 3 4 4 4 5 5 5 5 6 5 6 6 5 6 6 6
4 4 5 5 6 7 7 7 7 7 7 7 6 6 6 5 5 4 4 4 4 4 4 4 4 4 4 4 4 5 5 5 6 6 6 6 6 6 5 6 6 6 6
4 4 4 5 5 6 7 7 6 6 6 6 6 6 6 5 5 5 4 4 4 4 4 4 4 5 5 4 5 5 5 6 6 6 6 6 6 7 6 7 7 7 7
4 4 4 4 5 6 6 6 6 6 6 6 6 5 5 5 5 5 4 4 5 5 4 5 5 5 5 4 4 5 6 6 6 6 7 7 6 6 6 7 6 7 7
5 5 5 5 5 5 6 6 6 6 6 6 5 5 5 4 4 4 4 4 4 4 4 5 5 5 4 1 3 6 6 6 6 6 6 7 7 6 7 8 8 8 8
5 5 5 5 4 5 6 6 6 6 6 6 5 5 5 4 4 4 4 4 4 4 4 5 5 5 3 1 4 6 7 6 6 5 6 7 5 6 7 7 9 9 9
5 5 4 4 4 4 4 5 6 6 6 6 5 5 5 5 4 4 3 4 4 4 4 4 4 4 3 2 4 6 7 7 6 6 6 7 6 6 6 8 8 8 7
3 3 3 3 3 3 4 5 6 6 6 6 5 5 5 5 5 4 4 3 3 3 4 4 4 4 4 2 3 6 6 6 6 6 6 6 6 4 5 7 8 7 7
2 3 3 3 3 3 4 5 6 5 5 5 5 5 5 5 5 4 4 4 4 4 4 4 4 5 5 2 2 5 6 5 6 5 5 4 5 4 4 6 7 7 7
1 2 3 3 2 3 4 5 5 5 5 4 5 5 5 5 5 4 4 4 4 4 4 4 4 4 4 3 3 4 5 6 6 6 5 3 2 4 5 7 7 6 7
1 2 2 2 2 3 4 5 5 4 4 4 4 5 5 5 4 4 4 4 4 5 5 4 5 4 4 3 3 4 6 8 6 6 5 3 2 4 6 6 5 6 7
1 2 2 2 2 3 4 4 4 4 4 4 4 4 4 5 5 5 5 5 5 5 4 4 5 4 3 3 5 5 5 6 6 4 3 3 3 4 4 4 4 5 4
2 2 3 2 2 3 3 3 3 3 4 4 4 4 4 5 5 5 6 5 5 5 5 5 5 5 4 3 2 3 3 4 4 3 2 3 4 4 3 3 3 3 3
2 2 2 2 2 2 2 2 3 3 4 4 4 4 4 4 4 5 4 5 4 4 5 5 5 5 4 1 1 3 3 3 3 3 3 3 3 3 2 2 2 3 3
2 2 2 2 2 2 2 2 2 3 3 4 4 4 4 4 4 4 4 3 4 4 5 6 5 4 2 1 1 3 3 3 3 3 3 3 3 3 3 3 3 3 4
Wind_Direction
180 176 177 178 173 170 169 174 179 173 179 186 199 200 205 217 226 233 233 251 259 250 249 263 233 240 244 245 237 234 235 242 278 290 294 265 233 230 228 240 250 247 241
183 182 182 184 184 182 184 183 185 184 190 188 199 209 221 224 229 249 238 256 259 251 237 238 244 234 237 230 231 225 254 257 158 275 277 255 225 217 236 240 238 253 253
191 186 187 189 189 190 192 192 188 190 197 198 201 197 197 221 217 231 236 266 273 265 267 244 251 246 243 228 232 236 241 244 224 227 269 265 264 280 229 236 243 249 262
193 190 189 193 196 194 193 192 190 193 198 199 206 207 212 221 230 238 232 249 267 265 261 250 240 246 256 242 242 230 239 236 241 219 239 270 290 269 279 247 245 249 255
194 191 190 191 197 195 194 190 189 195 198 202 204 213 224 230 232 223 214 253 243 261 260 249 250 247 258 256 253 240 247 242 247 250 241 241 243 248 262 277 276 263 260
196 193 189 186 192 196 195 190 188 196 198 201 205 212 222 230 238 238 244 240 245 256 271 268 277 274 272 257 244 239 233 247 250 255 249 245 254 264 266 271 277 280 275
192 190 189 187 190 193 196 194 190 195 199 203 208 211 216 218 225 239 232 253 270 274 293 291 282 283 273 255 248 232 238 239 242 246 251 252 254 263 269 274 282 286 286
190 190 188 188 190 192 195 197 194 195 197 200 204 210 213 219 220 228 250 245 264 279 295 281 273 272 272 261 250 247 237 234 240 244 253 259 259 259 257 266 278 280 280
188 189 187 187 189 192 195 196 195 193 193 194 195 201 207 220 225 228 237 247 250 258 261 270 269 267 259 258 261 260 257 252 250 250 242 251 258 257 261 261 264 267 278
177 180 183 186 189 192 193 194 193 191 191 192 196 196 202 208 215 227 231 245 249 259 264 266 266 261 255 250 255 258 259 260 262 263 264 262 265 264 257 259 264 262 264
175 179 184 188 188 187 187 187 189 190 193 197 198 204 205 206 211 218 224 229 241 243 249 255 258 258 259 255 252 258 256 259 261 261 259 260 268 271 265 259 261 261 262
178 182 185 183 185 184 181 181 188 192 193 194 197 202 206 209 214 216 220 227 238 245 245 249 250 253 253 253 254 259 260 260 259 261 264 267 264 262 265 265 262 262 259
175 172 177 182 185 183 179 179 185 188 185 184 195 202 210 210 214 217 220 225 232 243 250 248 248 253 256 258 262 263 261 259 261 263 263 267 267 265 267 264 264 266 264
187 177 177 184 186 183 179 181 182 179 181 185 193 200 211 211 214 217 218 223 229 238 244 247 250 253 254 258 266 262 261 260 260 262 265 267 264 263 264 259 257 262 266
200 189 181 181 184 183 180 182 183 183 185 187 193 198 201 203 207 211 216 222 231 237 241 247 250 253 253 261 269 265 261 264 265 265 267 266 265 271 272 274 274 271 267
206 194 183 183 189 187 185 184 188 187 185 188 191 192 197 200 205 210 216 224 233 238 240 245 248 250 258 294 284 276 268 265 264 268 271 269 257 255 254 263 271 272 266
211 200 190 190 192 193 188 185 186 185 182 183 185 190 193 198 208 218 219 228 236 240 243 248 251 253 263 270 274 277 273 268 270 270 273 274 271 260 264 257 250 253 252
210 205 200 189 188 195 192 185 180 184 187 189 193 197 202 206 208 214 224 238 247 250 249 249 253 253 253 235 263 274 265 268 267 266 268 271 279 275 280 275 269 266 260
221 215 210 196 183 185 185 182 184 187 194 195 197 202 209 213 213 220 229 238 242 244 248 247 250 254 259 239 261 278 268 267 268 268 268 272 274 291 294 276 272 270 267
223 204 188 174 172 177 188 189 188 192 200 205 205 206 209 213 216 223 232 238 240 242 247 247 247 251 258 229 248 276 269 273 276 269 259 255 278 291 277 271 271 272 278
206 183 173 172 171 182 191 197 191 201 209 213 211 210 209 212 217 224 229 235 236 239 247 249 247 244 251 215 207 256 270 275 275 276 275 278 249 270 266 269 272 279 286
199 189 180 179 182 197 200 198 195 203 205 210 214 216 219 224 216 222 231 233 237 235 239 247 254 247 234 234 213 226 256 283 275 279 286 298 269 259 258 265 277 272 273
214 204 196 196 207 218 215 204 201 201 200 206 216 222 223 228 230 229 232 234 235 246 253 258 263 263 255 218 198 212 231 259 269 283 311 312 270 255 244 224 244 257 270
215 213 209 205 218 228 224 208 205 200 200 209 218 229 232 232 232 240 238 243 245 251 258 264 269 273 263 267 270 261 247 235 253 278 275 244 242 253 273 257 246 267 283
244 238 235 233 233 225 216 213 199 199 210 219 227 237 242 245 247 247 259 257 258 260 263 272 274 277 277 292 320 281 281 288 298 292 277 281 281 277 281 284 285 284 279
265 264 255 243 236 221 212 221 213 210 222 232 242 250 252 249 251 250 252 243 246 227 227 251 266 276 287 317 267 261 275 274 268 270 272 280 282 284 286 284 283 277 278
Height
1526 1528 1529 1531 1533 1534 1535 1536 1538 1539 1539 1540 1541 1542 1542 1543 1543 1543 1543 1542 1542 1542 1541 1542 1542 1542 1543 1543 1543 1544 1544 1544 1544 1544 1545 1545 1546 1546 1547 1547 1547 1547 1547
1524 1526 1528 1529 1531 1532 1533 1534 1536 1537 1538 1539 1540 1540 1541 1542 1542 1542 1541 1541 1541 1540 1540 1539 1540 1541 1541 1541 1541 1542 1542 1543 1542 1543 1544 1544 1546 1544 1545 1545 1545 1545 1545
1521 1523 1525 1527 1529 1530 1531 1533 1534 1535 1537 1538 1539 1540 1540 1541 1541 1541 1540 1540 1539 1538 1537 1537 1538 1538 1539 1540 1539 1540 1541 1541 1541 1542 1543 1543 1542 1543 1543 1543 1542 1542 1542
1518 1521 1523 1525 1526 1528 1530 1531 1532 1533 1535 1536 1537 1538 1539 1539 1539 1539 1539 1539 1538 1537 1536 1536 1536 1536 1537 1538 1538 1538 1538 1539 1540 1540 1540 1541 1541 1541 1541 1541 1541 1540 1539
1515 1518 1520 1522 1524 1526 1528 1529 1530 1531 1533 1534 1535 1536 1537 1538 1538 1538 1538 1538 1537 1536 1536 1535 1535 1535 1536 1536 1536 1536 1536 1537 1537 1538 1538 1539 1539 1539 1539 1538 1538 1538 1537
1512 1515 1518 1520 1522 1524 1526 1527 1528 1529 1531 1532 1533 1534 1535 1536 1536 1536 1537 1537 1537 1536 1535 1535 1534 1533 1534 1533 1533 1534 1534 1535 1535 1535 1536 1536 1536 1536 1537 1536 1535 1534 1534
1509 1512 1515 1517 1519 1521 1523 1524 1525 1526 1528 1529 1531 1532 1533 1534 1534 1535 1535 1535 1535 1535 1534 1533 1532 1532 1531 1531 1531 1532 1532 1532 1532 1532 1533 1533 1533 1534 1534 1534 1532 1531 1531
1507 1509 1512 1514 1516 1518 1520 1521 1522 1524 1525 1527 1528 1530 1531 1532 1532 1533 1533 1533 1533 1533 1532 1531 1530 1529 1529 1529 1529 1530 1530 1530 1530 1530 1529 1530 1531 1531 1531 1531 1530 1529 1528
1504 1507 1510 1512 1514 1515 1517 1518 1519 1521 1522 1524 1525 1527 1528 1529 1530 1530 1530 1531 1530 1530 1529 1529 1528 1527 1526 1526 1526 1527 1527 1527 1527 1527 1527 1527 1527 1528 1528 1528 1527 1527 1525
1503 1505 1508 1510 1512 1513 1515 1516 1517 1519 1520 1522 1523 1525 1525 1526 1527 1527 1528 1528 1528 1527 1527 1526 1526 1525 1524 1524 1524 1525 1524 1524 1524 1524 1524 1524 1524 1524 1524 1524 1524 1523 1523
1501 1503 1506 1508 1509 1511 1512 1513 1515 1517 1518 1520 1521 1522 1523 1524 1524 1525 1525 1525 1525 1525 1524 1524 1523 1523 1522 1522 1521 1522 1522 1522 1521 1521 1521 1520 1520 1520 1521 1520 1520 1520 1519
1499 1501 1503 1505 1507 1509 1510 1511 1513 1515 1516 1517 1518 1519 1520 1521 1522 1522 1522 1522 1522 1522 1522 1521 1521 1520 1520 1520 1519 1519 1518 1518 1518 1518 1517 1517 1517 1516 1516 1516 1516 1516 1515
1498 1500 1501 1503 1504 1506 1508 1509 1511 1513 1514 1515 1516 1517 1518 1518 1519 1519 1519 1519 1519 1519 1519 1519 1518 1518 1517 1517 1516 1516 1515 1515 1514 1514 1514 1513 1513 1512 1513 1512 1512 1512 1512
1497 1498 1500 1501 1503 1504 1506 1507 1509 1511 1512 1513 1514 1514 1515 1515 1516 1516 1516 1516 1516 1516 1516 1516 1515 1515 1515 1514 1513 1512 1512 1511 1511 1510 1510 1510 1509 1508 1508 1508 1507 1507 1507
1495 1496 1498 1500 1501 1503 1504 1505 1507 1508 1509 1510 1511 1512 1512 1513 1513 1513 1513 1513 1513 1513 1513 1512 1512 1511 1512 1511 1510 1509 1509 1508 1507 1506 1506 1506 1505 1504 1504 1504 1504 1503 1502
1493 1495 1496 1497 1499 1500 1501 1503 1504 1505 1506 1508 1509 1509 1509 1510 1510 1510 1510 1510 1510 1510 1510 1509 1508 1508 1508 1507 1506 1506 1505 1504 1504 1503 1502 1502 1502 1501 1500 1499 1499 1499 1498
1492 1493 1494 1495 1496 1498 1499 1500 1501 1503 1504 1505 1505 1506 1507 1507 1507 1508 1507 1507 1507 1506 1506 1506 1505 1505 1504 1503 1503 1503 1502 1501 1500 1499 1499 1499 1499 1497 1496 1495 1495 1494 1493
1490 1491 1492 1493 1494 1495 1497 1498 1499 1500 1501 1502 1502 1503 1504 1504 1504 1504 1504 1504 1503 1503 1503 1503 1502 1501 1501 1500 1500 1499 1498 1498 1497 1496 1495 1495 1494 1493 1492 1491 1490 1489 1488
1488 1489 1490 1491 1492 1493 1494 1495 1496 1497 1498 1499 1499 1500 1501 1501 1501 1501 1501 1500 1500 1500 1500 1499 1499 1498 1498 1497 1496 1496 1495 1494 1493 1492 1492 1491 1490 1489 1488 1487 1486 1485 1484
1486 1487 1488 1489 1490 1490 1492 1493 1493 1494 1495 1496 1496 1497 1498 1498 1498 1498 1498 1497 1497 1497 1497 1496 1496 1495 1495 1494 1493 1492 1492 1491 1490 1489 1488 1487 1486 1484 1483 1483 1482 1480 1480
1484 1485 1485 1486 1487 1488 1489 1490 1490 1491 1492 1493 1494 1494 1495 1495 1495 1495 1495 1494 1494 1494 1494 1493 1493 1492 1491 1490 1489 1489 1488 1487 1486 1485 1484 1483 1481 1480 1479 1478 1478 1477 1476
1483 1483 1483 1484 1484 1485 1486 1486 1487 1488 1489 1489 1491 1491 1492 1492 1493 1492 1492 1492 1491 1491 1491 1490 1490 1489 1488 1487 1486 1485 1484 1483 1482 1481 1480 1479 1477 1476 1475 1474 1473 1473 1472
1480 1481 1482 1482 1482 1483 1483 1483 1484 1485 1485 1486 1487 1488 1488 1489 1489 1489 1489 1489 1488 1488 1488 1488 1487 1486 1485 1483 1482 1481 1479 1478 1478 1477 1475 1474 1473 1472 1471 1470 1469 1469 1469
1478 1479 1480 1480 1480 1480 1481 1481 1481 1482 1482 1483 1484 1485 1485 1485 1485 1485 1486 1486 1485 1485 1484 1484 1483 1482 1482 1480 1479 1478 1477 1475 1474 1473 1471 1470 1469 1469 1468 1467 1466 1466 1465
1476 1477 1477 1477 1478 1478 1478 1479 1479 1479 1480 1480 1480 1481 1482 1482 1482 1482 1482 1481 1481 1480 1480 1480 1479 1478 1478 1477 1476 1475 1474 1472 1471 1469 1468 1468 1467 1466 1465 1465 1464 1463 1462
1474 1474 1475 1475 1475 1476 1476 1476 1477 1477 1477 1477 1478 1478 1479 1479 1479 1478 1478 1477 1477 1476 1475 1474 1474 1474 1474 1473 1472 1472 1471 1469 1468 1466 1466 1465 1464 1464 1463 1462 1461 1460 1459